"Time","Temp","Dewpoint","Humidity","Pressure","Direction","Speed","Gust","Precip","PrecipRate"
"00:04:59","71.8","68.1","88","30.05","232","0","0","0.00","0.00"
"00:09:56","71.8","68","87.8","30.05","232","0","0","0.00","0.00"
"00:14:58","71.8","67.7","87","30.05","232","0","0","0.00","0.00"
"00:19:59","71.8","67.7","87.2","30.05","232","0","0","0.00","0.00"
"00:24:56","71.8","68.2","88.3","30.05","232","0","0","0.00","0.00"
"00:29:57","71.7","68.2","88.7","30.05","232","0","0","0.00","0.00"
"00:34:58","71.7","68.2","88.7","30.05","232","0","0","0.00","0.00"
"00:39:58","71.5","68.1","89","30.05","232","0","0","0.00","0.00"
"00:44:59","71.4","68","89","30.05","232","0","0","0.00","0.00"
"00:49:56","71.3","67.9","89","30.05","232","0","0","0.00","0.00"
"00:54:57","71.2","67.9","89.2","30.05","232","0","0","0.00","0.00"
"00:59:57","71.2","67.9","89.3","30.05","232","0","0","0.00","0.00"
"01:04:58","71.1","67.7","89","30.04","232","0","0","0.00","0.00"
"01:09:59","71.1","67.7","89","30.04","232","0","0","0.00","0.00"
"01:14:59","71.1","67.7","89","30.04","232","0","0","0.00","0.00"
"01:19:56","71.1","67.7","89","30.04","232","0","0","0.00","0.00"
"01:24:58","71","67.6","89","30.04","232","0","0","0.00","0.00"
"01:29:59","70.9","67.7","89.7","30.04","232","0","0","0.00","0.00"
"01:34:56","70.8","67.7","90","30.04","232","0","0","0.00","0.00"
"01:39:56","70.6","67.5","90","30.04","232","0","0","0.00","0.00"
"01:44:57","70.5","67.4","89.9","30.04","232","0","0","0.00","0.00"
"01:49:58","70.5","67.3","89.8","30.04","232","0","0","0.00","0.00"
"01:54:59","70.4","67.3","90","30.04","232","0","0","0.00","0.00"
"01:59:56","70.3","67.2","90","30.04","232","0","0","0.00","0.00"
"02:04:58","70.3","67.2","90","30.04","232","0","0","0.00","0.00"
"02:09:56","70.2","67.3","90.6","30.04","230","0","0","0.00","0.00"
"02:14:56","70.2","67.4","91","30.04","230","0","0","0.00","0.00"
"02:19:57","70.1","67.1","90.3","30.03","230","0","0","0.00","0.00"
"02:24:58","70","66.7","89.5","30.03","230","0","0","0.00","0.00"
"02:29:51","70","66.7","89.5","30.03","230","0","0","0.00","0.00"
"02:34:56","70.1","66.4","88.2","30.03","164","0.1","3","0.00","0.00"
"02:39:57","70.4","66","85.9","30.03","164","0.4","3.5","0.00","0.00"
"02:44:58","70.9","66","84.4","30.03","164","0.3","2.3","0.00","0.00"
"02:49:59","71.4","66.3","84","30.03","164","0.1","2.3","0.00","0.00"
"02:54:55","71.7","66.6","84","30.03","164","0","0","0.00","0.00"
"02:59:57","71.8","66.4","83.1","30.03","164","0","0","0.00","0.00"
"03:04:58","71.9","67.3","85.6","30.03","164","0","0","0.00","0.00"
"03:09:56","71.8","67.4","86","30.03","164","0","0","0.00","0.00"
"03:14:58","71.5","67.4","86.9","30.03","164","0","0","0.00","0.00"
"03:19:59","71.3","67.4","87.5","30.03","164","0","0","0.00","0.00"
"03:24:56","71.1","67.6","88.4","30.03","164","0","0","0.00","0.00"
"03:29:57","71","67.6","89","30.03","164","0","0","0.00","0.00"
"03:34:57","70.9","67.6","89.5","30.03","164","0","0","0.00","0.00"
"03:39:57","70.8","67.7","90","30.03","164","0","0","0.00","0.00"
"03:44:57","70.8","67.7","90","30.03","164","0.2","1.2","0.00","0.00"
"03:49:59","70.8","67.7","90","30.03","164","0","0","0.00","0.00"
"03:54:56","70.8","67.7","90","30.03","164","0","0","0.00","0.00"
"03:59:56","70.9","67.6","89.5","30.03","164","0","0","0.00","0.00"
"04:04:59","70.8","67.7","90","30.03","164","0","0","0.00","0.00"
"04:09:58","70.8","67.7","90","30.03","164","0","0","0.00","0.00"
"04:14:57","70.6","67.5","90","30.03","164","0","0","0.00","0.00"
"04:19:57","70.6","67.5","90","30.03","164","0","0","0.00","0.00"
"04:24:56","70.4","67.3","90","30.03","164","0","0","0.00","0.00"
"04:29:56","70.4","67.4","90.4","30.04","164","0","0","0.00","0.00"
"04:34:58","70.4","67.6","91","30.04","164","0","0","0.00","0.00"
"04:39:57","70.4","67.6","91","30.04","164","0","0","0.00","0.00"
"04:44:59","70.3","67.5","91","30.04","164","0","0","0.00","0.00"
"04:49:56","70.3","67.5","91","30.04","164","0","0","0.00","0.00"
"04:54:57","70.4","67.7","91.4","30.04","164","0","0","0.00","0.00"
"04:59:58","70.4","67.6","91","30.04","164","0","0","0.00","0.00"
"05:04:59","70.4","67.3","90","30.04","164","0","0","0.00","0.00"
"05:09:57","70.4","67.3","90","30.04","164","0","0","0.00","0.00"
"05:14:57","70.3","67.3","90.3","30.04","164","0","0","0.00","0.00"
"05:19:57","70.3","67.3","90.4","30.04","164","0","0","0.00","0.00"
"05:24:58","70.4","67.6","91","30.04","164","0","0","0.00","0.00"
"05:29:59","70.4","67.6","91","30.04","164","0","0","0.00","0.00"
"05:34:56","70.4","67.6","91","30.04","164","0","0","0.00","0.00"
"05:39:57","70.5","67.9","91.4","30.04","164","0","0","0.00","0.00"
"05:44:58","70.6","68.2","92","30.05","164","0","0","0.00","0.00"
"05:49:55","70.6","68.2","92","30.05","164","0","0","0.00","0.00"
"05:54:56","70.6","68","91.5","30.05","164","0","0","0.00","0.00"
"05:59:58","70.6","67.8","91","30.05","164","0","0","0.00","0.00"
"06:04:59","70.5","67.6","90.7","30.05","132","0","0","0.00","0.00"
"06:09:58","70.6","67.5","90.2","30.05","132","0","0","0.00","0.00"
"06:14:58","70.6","67.7","90.6","30.06","132","0","0","0.00","0.00"
"06:19:56","70.7","67.8","90.6","30.06","132","0","0","0.00","0.00"
"06:24:57","70.8","67.7","90","30.06","132","0","0","0.00","0.00"
"06:29:57","71","67.7","89.4","30.06","132","0.2","2","0.00","0.00"
"06:34:58","71.2","67.8","88.8","30.05","132","0.5","2.3","0.00","0.00"
"06:39:57","71.4","67.8","88.3","30.05","132","0.2","2","0.00","0.00"
"06:44:57","71.5","67.8","88","30.05","153","0.1","2","0.00","0.00"
"06:49:57","71.6","67.9","88","30.05","221","0.1","2","0.00","0.00"
"06:54:57","71.8","68.1","88","30.05","139","1","3.5","0.00","0.00"
"06:59:58","72","68.1","87.6","30.05","76","0.3","2.3","0.00","0.00"
"07:04:59","72.2","68.1","87","30.05","77","0.8","3.5","0.00","0.00"
"07:09:57","72.3","68.2","87","30.05","78","0.4","2.3","0.00","0.00"
"07:14:56","72.5","68.4","87","30.06","78","0.6","2.3","0.00","0.00"
"07:19:56","72.7","68.5","86.7","30.06","115","1.1","4","0.00","0.00"
"07:24:57","73","68.8","86.8","30.06","133","0.8","3.5","0.00","0.00"
"07:29:56","73.1","69","87","30.06","120","1.3","4","0.00","0.00"
"07:34:57","73.4","69.3","87","30.06","113","0.5","2.3","0.00","0.00"
"07:39:57","73.5","69.2","86.3","30.06","147","1.4","5","0.00","0.00"
"07:44:57","73.6","69.3","86.3","30.06","152","2.2","5","0.00","0.00"
"07:49:58","73.7","69.2","86","30.06","139","2.3","5","0.00","0.00"
"07:54:58","73.7","69.2","86","30.06","160","2.2","5","0.00","0.00"
"07:59:59","73.7","69.3","86.3","30.06","133","2","5","0.00","0.00"
"08:04:57","73.7","69.6","87.1","30.06","168","1.7","4","0.00","0.00"
"08:09:59","73.8","69.7","87.1","30.06","158","2.4","6","0.00","0.00"
"08:14:58","73.8","69.8","87.4","30.06","144","1.6","4","0.00","0.00"
"08:19:58","73.9","70.1","87.8","30.06","170","2.1","4","0.00","0.00"
"08:24:59","73.9","70.1","88","30.06","175","2.5","7","0.00","0.00"
"08:29:56","73.9","70.1","88.1","30.06","180","2.5","5.8","0.00","0.00"
"08:34:56","73.9","70.5","89","30.06","168","3.8","8","0.00","0.00"
"08:39:59","73.9","70.5","89","30.06","166","3","5.8","0.00","0.00"
"08:44:58","73.9","70.6","89.5","30.06","176","3.5","7","0.00","0.00"
"08:49:59","73.8","70.7","90","30.06","189","3.2","7","0.00","0.00"
"08:54:59","73.8","70.9","90.5","30.06","166","2.5","6","0.00","0.00"
"08:59:59","73.9","70.9","90.5","30.06","196","3.3","5","0.00","0.00"
"09:04:59","73.9","70.8","90","30.06","164","2.7","5","0.00","0.00"
"09:09:57","73.9","70.9","90.4","30.06","171","1.7","5","0.00","0.00"
"09:14:57","73.9","70.8","90.1","30.07","145","2.9","9.2","0.00","0.00"
"09:19:57","74","71.1","90.5","30.07","181","2.4","6","0.00","0.00"
"09:24:58","74.2","71.3","90.8","30.07","171","2.8","5","0.00","0.00"
"09:29:59","74.6","71.7","90.8","30.07","178","1.8","5","0.00","0.00"
"09:34:58","75","72","90.3","30.06","188","2","4.6","0.00","0.00"
"09:39:57","75.3","72.1","89.7","30.06","148","1.5","5","0.00","0.00"
"09:44:57","75.5","71.9","88.8","30.06","165","2.3","4.6","0.00","0.00"
"09:49:58","75.7","72.3","89.4","30.06","173","2.2","4","0.00","0.00"
"09:54:58","75.9","72.4","89","30.06","201","2.2","4","0.00","0.00"
"09:59:58","76.2","72.7","89","30.06","176","2.3","5","0.00","0.00"
"10:04:59","76.4","72.8","88.5","30.06","191","3.4","9","0.00","0.00"
"10:09:56","76.5","72.8","88.3","30.06","188","3.7","9.2","0.00","0.00"
"10:14:59","76.8","73.1","88.5","30.06","190","3","6","0.00","0.00"
"10:19:56","77.2","73.3","87.8","30.06","193","3","6","0.00","0.00"
"10:24:56","77.6","73.8","88.1","30.06","194","2.7","6","0.00","0.00"
"10:29:57","78","73.7","86.8","30.06","194","1.6","5","0.00","0.00"
"10:34:57","78.3","73.9","86.5","30.06","180","2.3","5","0.00","0.00"
"10:39:57","78.6","73.9","85.4","30.06","183","2.2","7","0.00","0.00"
"10:44:56","78.9","74","85","30.06","199","3","7","0.00","0.00"
"10:49:59","79.2","74.4","85.4","30.06","198","3.4","7","0.00","0.00"
"10:54:58","79.7","74.9","85.3","30.06","171","3.2","5","0.00","0.00"
"10:59:57","80.4","75.6","85.3","30.06","178","2.7","6","0.00","0.00"
"11:04:56","81.1","75.7","83.6","30.06","197","3.7","11","0.00","0.00"
"11:09:58","81.4","75.6","82.7","30.06","183","3.1","11.5","0.00","0.00"
"11:14:59","81.9","75.8","81.9","30.06","148","3.5","11.5","0.00","0.00"
"11:19:58","82.3","76.1","81.5","30.05","175","3.2","8.1","0.00","0.00"
"11:24:57","82.5","75.7","79.9","30.05","177","3.6","9","0.00","0.00"
"11:29:59","82.8","76.6","81.9","30.05","165","2.9","10","0.00","0.00"
"11:34:59","83.1","76.7","81","30.05","212","3.2","10.4","0.00","0.00"
"11:39:56","83.2","76.5","80.3","30.05","226","2.7","6","0.00","0.00"
"11:44:59","83.3","76.6","80.2","30.05","204","3.1","7","0.00","0.00"
"11:49:58","83.6","77.1","80.8","30.05","179","3.1","8","0.00","0.00"
"11:54:58","84.1","76.9","79.1","30.05","171","2.4","5","0.00","0.00"
"11:59:57","84.4","76.9","78.2","30.05","154","2.2","6","0.00","0.00"
"12:04:57","84.4","77","78.6","30.04","176","3","7","0.00","0.00"
"12:09:58","84.8","77.4","78.5","30.04","186","3.3","7","0.00","0.00"
"12:14:56","85.3","77.3","77","30.04","184","3.8","11","0.00","0.00"
"12:19:58","85.1","76.6","75.7","30.04","193","5.3","11.5","0.00","0.00"
"12:24:57","84.9","76.4","75.8","30.04","197","4.6","9.2","0.00","0.00"
"12:29:56","84.8","76.5","76.4","30.04","205","3.8","9.2","0.00","0.00"
"12:34:58","84.9","76.4","75.7","30.04","171","4.5","9.2","0.00","0.00"
"12:39:56","85.2","76.5","75.4","30.04","175","3.2","7","0.00","0.00"
"12:44:55","85.5","76.6","74.7","30.04","178","3.1","6","0.00","0.00"
"12:49:59","85.9","77.5","76.2","30.04","188","2.6","5","0.00","0.00"
"12:54:57","86.6","77.5","74.6","30.04","181","3.2","7","0.00","0.00"
"12:59:56","87","77.1","72.5","30.04","193","4.8","10.4","0.00","0.00"
"13:04:59","86.9","76.1","70.4","30.03","188","5.6","12","0.00","0.00"
"13:09:57","87.1","76.5","71","30.03","178","4.2","11.5","0.00","0.00"
"13:14:55","87.3","76.2","69.7","30.03","200","3.4","7","0.00","0.00"
"13:19:59","87.2","76","69.6","30.03","198","5.2","11.5","0.00","0.00"
"13:24:58","87.5","76.7","70.5","30.03","176","4.6","11.5","0.00","0.00"
"13:29:57","87.7","75.5","67.2","30.03","175","4.3","10.4","0.00","0.00"
"13:34:56","87.4","74.7","66.2","30.02","166","4.1","10","0.00","0.00"
"13:39:55","87.4","75.4","67.7","30.02","152","4.2","7","0.00","0.00"
"13:44:58","87.8","74.7","65.4","30.02","149","4.5","11.5","0.00","0.00"
"13:49:57","87.8","74.6","65.3","30.01","178","4.8","10.4","0.00","0.00"
"13:54:56","88.1","74.7","64.7","30.01","169","3.9","10","0.00","0.00"
"13:59:56","88.6","75.1","64.5","30.01","165","3.8","9.2","0.00","0.00"
"14:04:56","89.2","75.9","65.1","30.00","191","3.8","7","0.00","0.00"
"14:09:57","89.6","75.5","63.5","30.00","183","3.7","10","0.00","0.00"
"14:14:56","89.9","75.3","62.4","30.00","182","3.9","10.4","0.00","0.00"
"14:19:56","90.1","74.6","60.6","29.99","169","3.6","11","0.00","0.00"
"14:24:57","90.2","75.2","61.6","29.99","189","3.5","10","0.00","0.00"
"14:29:57","90.2","75.1","61.4","29.99","197","5.2","10.4","0.00","0.00"
"14:34:56","90.4","75.8","62.3","29.99","198","4.8","10","0.00","0.00"
"14:39:56","90.2","74.5","60.1","29.99","207","4","9.2","0.00","0.00"
"14:44:56","89.9","75.6","63","29.99","194","2.3","6","0.00","0.00"
"14:49:57","90.2","75.9","63.2","29.98","188","2.5","6","0.00","0.00"
"14:54:58","90.7","75.2","60.6","29.98","196","3.5","9.2","0.00","0.00"
"14:59:58","91","74.8","59.3","29.98","187","4.1","10","0.00","0.00"
"15:04:59","90.4","74.4","59.7","29.98","162","3.8","10.4","0.00","0.00"
"15:09:56","89.9","74.8","61.3","29.98","157","2.7","6","0.00","0.00"
"15:14:56","89.5","75","62.6","29.98","171","3.1","6","0.00","0.00"
"15:19:57","89.6","74.5","61.4","29.98","157","4.4","10","0.00","0.00"
"15:24:59","89.3","74","60.7","29.98","164","3.9","9.2","0.00","0.00"
"15:29:59","89.3","75.1","63.1","29.98","190","3","8","0.00","0.00"
"15:34:56","89.7","76.5","65.4","29.98","134","2.8","8.1","0.00","0.00"
"15:39:56","89.8","77","66.3","29.98","128","2.7","13","0.00","0.00"
"15:44:56","89.7","75.7","63.7","29.98","150","4.1","12.7","0.00","0.00"
"15:49:57","89.9","76.1","64.2","29.98","152","3.2","9.2","0.00","0.00"
"15:54:58","90","76.1","63.9","29.98","139","2.8","9.2","0.00","0.00"
"15:59:58","90.1","76.1","63.5","29.98","142","4","10","0.00","0.00"
"16:04:58","90","75.8","63","29.98","139","4.4","10.4","0.00","0.00"
"16:09:59","89.7","76.1","64.4","29.98","163","3.8","10.4","0.00","0.00"
"16:14:58","89.9","75.5","62.9","29.98","163","4.4","12","0.00","0.00"
"16:19:58","89.6","75.4","63.3","29.97","182","4.3","9.2","0.00","0.00"
"16:24:59","89.7","75.3","62.7","29.97","158","3.8","9.2","0.00","0.00"
"16:29:57","89.8","75.3","62.5","29.97","165","3.4","10","0.00","0.00"
"16:34:57","89.1","74.6","62.4","29.96","152","4.3","11.5","0.00","0.00"
"16:39:58","88.4","74.5","63.7","29.96","162","2.7","6","0.00","0.00"
"16:44:59","88.2","75.3","65.8","29.97","187","3.6","9","0.00","0.00"
"16:49:59","89","76.3","66.3","29.97","177","3.4","6","0.00","0.00"
"16:54:56","89.7","76.9","66","29.97","128","3.3","9","0.00","0.00"
"16:59:58","90","78.1","68.1","29.97","119","3.3","7","0.00","0.00"
"17:04:58","90","77.3","66.4","29.96","132","3.7","10","0.00","0.00"
"17:09:59","89.9","77.6","67.3","29.96","146","4.1","10.4","0.00","0.00"
"17:14:57","89.4","76.7","66.3","29.96","127","3.5","10.4","0.00","0.00"
"17:19:57","89.5","75.7","64","29.96","187","5","11.5","0.00","0.00"
"17:24:57","89.8","74.8","61.7","29.96","170","4.7","10.4","0.00","0.00"
"17:29:55","90.1","75.2","61.8","29.96","171","2.5","7","0.00","0.00"
"17:34:56","90.2","75.3","61.7","29.96","202","3.5","6.9","0.00","0.00"
"17:39:59","90.2","75.8","62.9","29.96","179","2.4","5","0.00","0.00"
"17:44:55","89.8","75.5","63","29.96","167","3.7","9","0.00","0.00"
"17:49:56","89.3","75","62.9","29.96","158","3.6","9","0.00","0.00"
"17:54:56","89.2","75.2","63.5","29.96","147","3.5","6.9","0.00","0.00"
"17:59:55","89.4","75.2","63.3","29.96","167","2.8","9.2","0.00","0.00"
"18:04:56","89.4","75.5","63.7","29.95","176","3","9","0.00","0.00"
"18:09:57","89.4","75.5","63.7","29.95","181","4.5","15","0.00","0.00"
"18:14:56","89.3","75.1","63.2","29.95","155","3.9","11.5","0.00","0.00"
"18:19:56","89.1","75.1","63.3","29.94","180","5.8","15","0.00","0.00"
"18:24:56","88.7","75.2","64.7","29.94","173","4.7","14","0.00","0.00"
"18:29:56","87.9","74.9","65.7","29.95","181","5.6","13","0.00","0.00"
"18:34:57","87.3","75","67","29.95","174","5.4","12","0.00","0.00"
"18:39:56","87.1","75.1","67.7","29.95","182","4.6","12","0.00","0.00"
"18:44:57","87","75.4","68.5","29.95","177","4.2","15","0.00","0.00"
"18:49:58","86.9","75.1","68.2","29.95","177","5.8","15","0.00","0.00"
"18:54:58","86.7","75.1","68.5","29.95","203","5.9","12","0.00","0.00"
"18:59:58","86.6","75","68.5","29.95","171","4.8","13","0.00","0.00"
"19:04:54","86.3","75","69.2","29.95","188","5.7","12","0.00","0.00"
"19:09:57","86","74.6","69.2","29.95","186","5.8","14","0.00","0.00"
"19:14:56","85.7","74.8","70","29.95","199","4.5","13","0.00","0.00"
"19:19:58","85.5","74.8","70.6","29.95","181","4.8","12.7","0.00","0.00"
"19:24:55","85.2","74.7","71","29.95","176","3.9","12","0.00","0.00"
"19:29:56","85","74.7","71.3","29.95","176","5.3","13","0.00","0.00"
"19:34:57","84.9","74.8","71.7","29.95","169","4.2","10.4","0.00","0.00"
"19:39:56","84.9","74.9","72.2","29.95","167","4","10.4","0.00","0.00"
"19:44:57","84.8","74.9","72.3","29.95","167","3.3","8.1","0.00","0.00"
"19:49:57","84.6","75","73","29.94","171","3.9","9.2","0.00","0.00"
"19:54:57","84.5","74.9","73","29.94","175","3.4","9","0.00","0.00"
"19:59:58","84.4","74.9","73.3","29.94","186","3.5","11","0.00","0.00"
"20:04:59","84.3","75","74","29.94","196","2.9","9.2","0.00","0.00"
"20:09:56","84.1","74.5","73","29.94","191","4.2","10.4","0.00","0.00"
"20:14:57","83.9","74.4","73.2","29.94","188","2.6","5","0.00","0.00"
"20:19:56","83.8","74.2","73","29.94","174","2.2","5","0.00","0.00"
"20:24:57","83.6","74","72.8","29.94","191","2.1","5","0.00","0.00"
"20:29:59","83.4","73.6","72.5","29.95","199","2.7","7","0.00","0.00"
"20:34:57","83.3","73.2","71.9","29.95","163","2.2","5","0.00","0.00"
"20:39:59","83.2","73.2","71.9","29.95","198","2.9","5","0.00","0.00"
"20:44:58","83.1","73.1","72","29.96","186","1.7","3.5","0.00","0.00"
"20:49:57","82.9","72.9","72","29.96","190","1.7","6","0.00","0.00"
"20:54:59","82.7","72.7","72","29.96","218","1.1","3","0.00","0.00"
"20:59:57","82.6","72.9","72.7","29.96","218","1.1","3.5","0.00","0.00"
"21:04:59","82.4","72.9","73.1","29.96","218","1.1","3.5","0.00","0.00"
"21:09:57","82.1","73","73.8","29.96","218","0.9","3.5","0.00","0.00"
"21:14:59","81.9","72.8","74","29.97","218","0.8","2.3","0.00","0.00"
"21:19:57","81.7","72.9","74.7","29.97","218","0.6","2.3","0.00","0.00"
"21:24:56","81.5","72.8","75","29.97","218","0.1","1.2","0.00","0.00"
"21:29:59","81.3","72.7","75.3","29.98","218","0.5","2.3","0.00","0.00"
"21:34:58","81.1","72.8","76","29.98","218","0","1.2","0.00","0.00"
"21:39:56","81","72.9","76.4","29.98","218","0.4","3.5","0.00","0.00"
"21:44:58","80.8","72.9","77","29.99","218","0","0","0.00","0.00"
"21:49:56","80.6","72.8","77.4","29.99","218","0","0","0.00","0.00"
"21:54:59","80.3","72.8","78","29.99","218","0.1","1.2","0.00","0.00"
"21:59:57","80","72.8","78.9","29.99","218","0","1.2","0.00","0.00"
"22:04:58","79.7","73","79.9","29.98","218","0.7","3.5","0.00","0.00"
"22:09:57","79.7","73","80","29.98","218","0.3","2.3","0.00","0.00"
"22:14:58","79.7","73.2","80.6","29.98","169","1.7","3.5","0.00","0.00"
"22:19:57","79.9","73.5","81","29.98","157","1.8","4","0.00","0.00"
"22:24:56","80","73.6","81","29.98","183","1.1","3.5","0.00","0.00"
"22:29:58","80.1","73.7","81","29.98","145","2","5","0.00","0.00"
"22:34:56","80.2","73.8","81.1","29.98","163","2.5","10","0.00","0.00"
"22:39:57","80.2","73.9","81.2","29.98","181","2.7","5","0.00","0.00"
"22:44:56","80.2","74.2","82","29.98","155","2.5","5","0.00","0.00"
"22:49:58","80.2","74.2","82","29.98","137","2.9","7","0.00","0.00"
"22:54:57","80.3","74.3","82","29.98","168","2.8","7","0.00","0.00"
"22:59:55","80.2","74.2","82","29.99","153","2.3","6","0.00","0.00"
"23:04:57","80.1","74.1","82","29.99","163","2.8","5.8","0.00","0.00"
"23:09:59","80","74","82","29.99","175","2.5","5","0.00","0.00"
"23:14:57","79.9","74","82.2","29.99","158","2.6","5","0.00","0.00"
"23:19:59","79.8","73.9","82.4","29.99","172","3.2","9.2","0.00","0.00"
"23:24:58","79.7","73.9","82.5","29.99","168","3.2","6.9","0.00","0.00"
"23:29:56","79.6","74","83","30.01","176","2.4","6","0.00","0.00"
"23:34:58","79.5","73.8","82.8","30.01","189","3.1","6","0.00","0.00"
"23:39:59","79.4","73.4","82","30.01","162","2.5","9","0.00","0.00"
"23:44:57","79.3","73.3","82","30.01","173","3.1","6.9","0.00","0.00"
"23:49:59","79.2","73.2","82","30.01","177","3.3","9","0.00","0.00"
"23:54:57","79.1","73.1","82","30.01","186","3.2","7","0.00","0.00"
"23:59:59","79","72.8","81.2","30.01","174","3","7","0.00","0.00"
